User: anonymous   Login
Location: Diebersbach
(48.5163°N, 8.0558°E)
Time: 19:33:00
(UTC+00:00)
Language:

NOSS 3-1 (A) - Orbit

View from above orbital plane
View from above orbital plane
View from above satellite
View from above satellite

Ground track
Ground track

The orbit data is extracted from the following two-line orbital elements,

1 26905U 01040A   21269.17183363 0.00000000  00000-0  00000-0 0    02
2 26905  63.4042 359.5088 0508700   2.6217 357.3783 13.40796169    01
Epoch (UTC): 26 September 2021 04:07:26
Eccentricity: 0.0508700
inclination: 63.4042°
perigee height: 725 km
apogee height: 1487 km
right ascension of ascending node: 359.5088°
argument of perigee: 2.6217°
revolutions per day: 13.40796169
mean anomaly at epoch: 357.3783°
orbit number at epoch: 0

The dashed part of the orbit path shows where the satellite is in the earth's shadow,  

DLR